TimeAKDT,TemperatureF,Dew PointF,Humidity,Sea Level PressureIn,VisibilityMPH,Wind Direction,Wind SpeedMPH,Gust SpeedMPH,PrecipitationIn,Events,Conditions,WindDirDegrees,DateUTC
12:53 AM,48.0,48.0,100,30.04,7.0,Calm,Calm,-,N/A,,Overcast,0,2013-10-23 08:53:00
1:53 AM,48.0,48.0,100,30.03,9.0,Calm,Calm,-,N/A,,Overcast,0,2013-10-23 09:53:00
2:38 AM,46.4,46.4,100,30.03,2.5,Calm,Calm,-,N/A,,Mostly Cloudy,0,2013-10-23 10:38:00
2:51 AM,46.4,46.4,100,30.02,1.8,Calm,Calm,-,N/A,,Mostly Cloudy,0,2013-10-23 10:51:00
2:53 AM,46.9,46.9,100,30.03,1.5,Calm,Calm,-,N/A,,Overcast,0,2013-10-23 10:53:00
3:01 AM,46.4,46.4,100,30.02,0.8,Calm,Calm,-,N/A,,Overcast,0,2013-10-23 11:01:00
3:49 AM,46.4,46.4,100,30.01,1.0,Calm,Calm,-,N/A,,Overcast,0,2013-10-23 11:49:00
3:53 AM,46.0,46.0,100,30.01,1.0,Calm,Calm,-,N/A,,Overcast,0,2013-10-23 11:53:00
4:01 AM,46.4,46.4,100,30.01,0.5,Calm,Calm,-,N/A,Fog,Fog,0,2013-10-23 12:01:00
4:11 AM,46.4,46.4,100,30.01,0.2,Calm,Calm,-,N/A,Fog,Fog,0,2013-10-23 12:11:00
4:28 AM,46.4,46.4,100,30.00,0.8,Calm,Calm,-,N/A,,Overcast,0,2013-10-23 12:28:00
4:30 AM,46.4,46.4,100,30.00,1.0,Calm,Calm,-,N/A,,Overcast,0,2013-10-23 12:30:00
4:35 AM,46.4,46.4,100,30.00,3.0,Calm,Calm,-,N/A,,Overcast,0,2013-10-23 12:35:00
4:53 AM,46.0,46.0,100,30.00,7.0,Calm,Calm,-,N/A,,Mostly Cloudy,0,2013-10-23 12:53:00
5:28 AM,44.6,44.6,100,29.99,10.0,Calm,Calm,-,N/A,,Overcast,0,2013-10-23 13:28:00
5:39 AM,44.6,44.6,100,29.99,1.5,Calm,Calm,-,N/A,,Overcast,0,2013-10-23 13:39:00
5:44 AM,44.6,44.6,100,29.99,0.8,Calm,Calm,-,N/A,,Overcast,0,2013-10-23 13:44:00
5:53 AM,44.1,44.1,100,30.00,0.5,Calm,Calm,-,N/A,Fog,Fog,0,2013-10-23 13:53:00
6:02 AM,44.6,44.6,100,29.99,0.5,Calm,Calm,-,N/A,Fog,Fog,0,2013-10-23 14:02:00
6:24 AM,44.6,44.6,100,29.99,1.2,Calm,Calm,-,N/A,,Overcast,0,2013-10-23 14:24:00
6:37 AM,44.6,44.6,100,29.99,1.5,Calm,Calm,-,N/A,,Overcast,0,2013-10-23 14:37:00
6:51 AM,44.6,44.6,100,29.99,0.5,Calm,Calm,-,N/A,Fog,Fog,0,2013-10-23 14:51:00
6:53 AM,44.1,44.1,100,29.99,0.5,Calm,Calm,-,N/A,Fog,Fog,0,2013-10-23 14:53:00
7:25 AM,44.6,44.6,100,29.99,0.5,Calm,Calm,-,N/A,Fog,Fog,0,2013-10-23 15:25:00
7:50 AM,44.6,44.6,100,29.99,0.2,Calm,Calm,-,N/A,Fog,Fog,0,2013-10-23 15:50:00
7:53 AM,45.0,45.0,100,29.99,0.2,Calm,Calm,-,N/A,Fog,Fog,0,2013-10-23 15:53:00
8:13 AM,46.4,46.4,100,29.98,0.2,Calm,Calm,-,N/A,Fog,Fog,0,2013-10-23 16:13:00
8:53 AM,46.9,46.9,100,29.99,0.5,Calm,Calm,-,N/A,Fog,Fog,0,2013-10-23 16:53:00
9:06 AM,48.2,48.2,100,29.99,2.0,Calm,Calm,-,N/A,,Mostly Cloudy,0,2013-10-23 17:06:00
9:14 AM,48.2,48.2,100,29.99,8.0,Calm,Calm,-,N/A,,Mostly Cloudy,0,2013-10-23 17:14:00
9:49 AM,50.0,50.0,100,29.99,10.0,SSE,5.8,-,N/A,,Partly Cloudy,150,2013-10-23 17:49:00
9:53 AM,50.0,50.0,100,30.00,10.0,SSE,5.8,-,N/A,,Partly Cloudy,150,2013-10-23 17:53:00
10:26 AM,50.0,50.0,100,30.00,10.0,SE,6.9,-,N/A,,Mostly Cloudy,140,2013-10-23 18:26:00
10:43 AM,50.0,50.0,100,30.00,10.0,SSE,5.8,-,N/A,,Mostly Cloudy,150,2013-10-23 18:43:00
10:53 AM,50.0,50.0,100,30.01,3.0,South,6.9,-,N/A,,Mostly Cloudy,180,2013-10-23 18:53:00
10:55 AM,48.2,48.2,100,30.01,1.2,South,6.9,-,N/A,,Overcast,190,2013-10-23 18:55:00
11:03 AM,48.2,48.2,100,30.01,0.5,South,5.8,-,N/A,Fog,Fog,190,2013-10-23 19:03:00
11:53 AM,48.0,48.0,100,30.02,0.5,South,6.9,-,N/A,Fog,Fog,180,2013-10-23 19:53:00
12:16 PM,48.2,48.2,100,30.01,2.5,South,4.6,-,N/A,,Overcast,180,2013-10-23 20:16:00
12:27 PM,48.2,48.2,100,30.01,0.8,South,6.9,-,N/A,,Mist,180,2013-10-23 20:27:00
12:50 PM,48.2,48.2,100,30.01,1.0,SSE,6.9,-,N/A,,Mist,160,2013-10-23 20:50:00
12:53 PM,48.9,48.9,100,30.02,1.0,SSE,5.8,-,N/A,,Mist,150,2013-10-23 20:53:00
1:00 PM,48.2,48.2,100,30.01,0.2,SSE,8.1,-,N/A,Fog,Fog,150,2013-10-23 21:00:00
1:22 PM,48.2,48.2,100,30.01,0.5,SSE,8.1,-,N/A,Fog,Fog,150,2013-10-23 21:22:00
1:53 PM,48.9,48.9,100,30.01,0.5,SSE,6.9,-,N/A,Fog,Fog,150,2013-10-23 21:53:00
2:46 PM,48.2,48.2,100,30.00,1.2,South,6.9,16.1,N/A,,Overcast,170,2013-10-23 22:46:00
2:53 PM,48.0,48.0,100,30.00,1.8,SSE,6.9,-,N/A,,Overcast,150,2013-10-23 22:53:00
2:58 PM,48.2,48.2,100,30.00,3.0,SSE,8.1,-,N/A,,Overcast,160,2013-10-23 22:58:00
3:32 PM,48.2,48.2,100,30.00,1.8,SSE,6.9,-,N/A,,Overcast,150,2013-10-23 23:32:00
3:53 PM,48.0,48.0,100,30.01,0.8,SSE,5.8,-,N/A,,Mist,150,2013-10-23 23:53:00
4:00 PM,48.2,48.2,100,30.00,2.0,SE,6.9,-,N/A,,Overcast,140,2013-10-24 00:00:00
4:28 PM,48.2,48.2,100,30.00,1.8,SSE,6.9,-,N/A,,Overcast,150,2013-10-24 00:28:00
4:46 PM,48.2,48.2,100,30.00,2.5,SE,6.9,-,0.01,,Overcast,140,2013-10-24 00:46:00
4:53 PM,48.0,48.0,100,30.01,3.0,SE,9.2,-,0.01,,Overcast,140,2013-10-24 00:53:00
5:39 PM,48.2,48.2,100,30.01,9.0,SE,6.9,-,N/A,,Overcast,140,2013-10-24 01:39:00
5:53 PM,48.0,48.0,100,30.01,9.0,SE,5.8,-,N/A,,Overcast,140,2013-10-24 01:53:00
6:53 PM,46.9,46.9,100,30.02,6.0,SE,3.5,-,0.01,,Overcast,140,2013-10-24 02:53:00
7:17 PM,46.4,46.4,100,30.02,5.0,SE,3.5,-,N/A,,Overcast,140,2013-10-24 03:17:00
7:29 PM,46.4,46.4,100,30.02,5.0,SE,4.6,-,N/A,,Overcast,130,2013-10-24 03:29:00
7:53 PM,46.9,46.9,100,30.01,9.0,SE,6.9,-,N/A,,Overcast,130,2013-10-24 03:53:00
8:53 PM,46.9,46.9,100,30.02,10.0,SE,3.5,-,N/A,,Overcast,130,2013-10-24 04:53:00
9:53 PM,46.9,46.9,100,30.02,10.0,Calm,Calm,-,N/A,,Overcast,0,2013-10-24 05:53:00
10:53 PM,46.9,46.9,100,30.04,10.0,Calm,Calm,-,N/A,,Overcast,0,2013-10-24 06:53:00
11:53 PM,46.9,46.9,100,30.05,10.0,Calm,Calm,-,N/A,,Overcast,0,2013-10-24 07:53:00